IRIDIUM 33 DEB

Satellite information

Favourite Embed

Satellite Type and Status

DEBRISIN ORBIT

Key statistics

Satellite IRIDIUM 33 DEB at a glance.

Uptime

10218

Days in orbit

Revolutions

≈ 14.8

Per day

Orbit

LEO

Low Earth Orbit

Inclination

86.4

Latest

Satellite identification and parameters

Extended collection of information and parameters for IRIDIUM 33 DEB.

Object identification

Identified? True

Debris? True

Object name: IRIDIUM 33 DEB

International designator: 1997-051SY

Object number (NORAD): 35848

Object ID (CCSDS): 35848

Country: UNITED STATES OF AMERICA (US)

Current information (Y/N): Y

RCS size: SMALL

Orbital parameters

Period: 97.618 minutes

Inclination: 86.3866 deg

SMA: 7022.864 km

Apoapsis: 650.636 km

Periapsis: 638.821 km

RAAN: 62.0921 deg

Eccentricy: 0.00084118

Argument of periapsis: 196.251 deg

Mean anomaly: 163.844 deg

Mean motion: 14.75133814 rev/day

Mean motion (dot): 0.00016405 rev/day2

B* drag term: 0.0024238923 1/REarth

Two-line elements (TLE)

Creation date: Sept. 1, 2025, 10:16 a.m.

Reference frame: TEME

Reference center: EARTH

Epoch: Sept. 1, 2025, 5:19 a.m. UTC

TLE line 0: 0 IRIDIUM 33 DEB

TLE line 1: 1 35848U 97051SY 25244.22193689 .00016405 00000-0 24239-2 0 9995

TLE line 2: 2 35848 86.3866 62.0921 0008412 196.2510 163.8440 14.75133814651775

Live tracking on map

Real-time ground track for satellite IRIDIUM 33 DEB.

In-orbit conjunctions

A list of the most updated potential collisions computed for object IRIDIUM 33 DEB.

Target Orbit TCA Probability of collision Miss distance Type
CZ-6A DEB LEO 2025-02-20 12:58:28 0.0002592365 808.0 (m) DEBRIS
FENGYUN 1C DEB SSO 2024-10-22 08:36:17 0.0001138657 98.0 (m) DEBRIS
PSLV R/B SSO 2024-06-14 13:22:39 0.000221482 185.0 (m) ROCKET BODY

Associated space launch

Iridium provides global mobile telecommunications services using a constellation of 66 low earth orbit satellites in a 86.4° inclined orbit. Although 77 satellites were originally envisioned for the system and spawned the name based on the 77th element in the periodic table, the system has been scaled back. Motorola's Satellite Communications Group designed and manufactured the Iridium satellites with Lockheed Martin providing the LM-700A spacecraft buses.

IRIDIUM 33 DEB was lifted into orbit during the mission ‘Proton-K/17S40 | Iridium 27 to 33’, on board a Proton-K/17S40 space rocket.

The launch took place on Sept. 14, 1997, 1:36 a.m. from 81/23 (81L).

For more information about the launch, click the button.

Launch to space Proton-K/17S40 | Iridium 27 to 33
Proton-K/17S40 | Iridium 27 to 33

Agency: N/A

Status: Launch Successful

Launch date: Sept. 14, 1997, 1:36 a.m. UTC

Rocket: Proton-K/17S40

Launch pad: 81/23 (81L)

Location: Baikonur Cosmodrome, Republic of Kazakhstan

...

Latest news about this satellite

There are no fresh news available about this satellite. Check back as we update our databases every day.


Newsletter sign-up

Weekly statistics, charts and insights to help you stay on top of the space industry.